This demonstration page uses our WeatherBlox Daily Observations layout. Learn more.

41.55636, -103.73856

Hourly Observations for July 6, 2016

Temp ( °F °C ) Dew Point ( °F °C ) Humidity (%) Winds ( mph kmh ) Pressure ( in mb ) Visibility ( mi km ) Precip ( " mm )
12:53 am 00:53 Clear 65 18.3 56 13.3 73 73 E 5 7 29.74 1007 10 16.0934 0 0
1:53 am 01:53 Clear 63 17.2 56 13.3 78 78 ESE 8 13 29.74 1007 10 16.0934 0 0
2:53 am 02:53 Clear 64 17.8 55 12.8 73 73 E 8 13 29.72 1006 10 16.0934 0 0
3:53 am 03:53 Clear 61 16.1 55 12.8 81 81 SSE 5 7 29.75 1008 10 16.0934 0 0
4:53 am 04:53 Clear 58 14.4 54 12.2 87 87 E 6 9 29.78 1008 10 16.0934 0 0
5:53 am 05:53 Sunny 60 15.6 55 12.8 84 84 E 3 6 29.78 1009 10 16.0934 0 0
6:53 am 06:53 Sunny 67 19.4 56 13.3 68 68 E 6 9 29.77 1008 10 16.0934 0 0
7:53 am 07:53 Sunny 73 22.8 55 12.8 53 53 ESE 7 11 29.76 1008 10 16.0934 0 0
8:53 am 08:53 Sunny 79 26.1 54 12.2 42 42 S 6 9 29.75 1008 10 16.0934 0 0
9:53 am 09:53 Sunny 85 29.4 52 11.1 32 32 S 9 15 29.73 1007 10 16.0934 0 0
10:53 am 10:53 Sunny 86 30 57 13.9 37 37 ESE 12 19 29.71 1006 10 16.0934 0 0
11:53 am 11:53 Sunny 92 33.3 51 10.6 25 25 SSE 16 26 29.68 1005 10 16.0934 0 0
12:53 pm 12:53 Sunny 96 35.6 44 6.7 17 17 SSW 8 13 29.62 1003 10 16.0934 0 0
1:53 pm 13:53 Sunny 97 36.1 39 3.9 13 13 VRB 5 7 29.6 1002 10 16.0934 0 0
2:53 pm 14:53 Sunny 94 34.4 48 8.9 21 21 NW 8 13 29.6 1002 10 16.0934 0 0
3:53 pm 15:53 Sunny 97 36.1 46 7.8 17 17 NW 9 15 29.59 1002 10 16.0934 0 0
4:53 pm 16:53 Sunny 98 36.7 38 3.3 12 12 W 7 11 29.57 1001 10 16.0934 0 0
5:53 pm 17:53 Sunny 94 34.4 44 6.7 18 18 WNW 14 22 29.57 1001 10 16.0934 0 0
6:53 pm 18:53 Sunny 90 32.2 48 8.9 24 24 NW 9 15 29.56 1001 10 16.0934 0 0
7:53 pm 19:53 Sunny 82 27.8 56 13.3 41 41 NNE 10 17 29.59 1002 10 16.0934 0 0
8:53 pm 20:53 Clear 74 23.3 57 13.9 56 56 N 8 13 29.61 1003 10 16.0934 0 0
9:53 pm 21:53 Clear 68 20 59 15 73 73 WNW 8 13 29.64 1004 10 16.0934 0 0
10:53 pm 22:53 Clear 68 20 60 15.6 76 76 NNE 7 11 29.67 1005 10 16.0934 0 0
11:53 pm 23:53 Clear 67 19.4 61 16.1 81 81 Calm 29.67 1005 10 16.0934 0 0

Powered by AerisWeather